User: anonymous   Login
Location: Unspecified
(0.0000°N, 0.0000°E)
Time: 08:59:12
(UTC+00:00)
Language:

TBA - TO BE ASSIGNED - Orbit

View from above orbital plane
View from above orbital plane
View from above satellite
View from above satellite

Ground track
Ground track

The orbit is defined by the following mean orbital elements,

1 67986U          26145.54930280 +.00000000 +00000-0 +77206-3 0 00003
2 67986  42.9978 335.2589 0000447 262.9946  97.0855 15.27596437    08
Epoch (UTC): 25 May 2026 13:10:59
Eccentricity: 0.0000447
inclination: 42.9978°
perigee height: 483 km
apogee height: 483 km
right ascension of ascending node: 335.2589°
argument of perigee: 262.9946°
revolutions per day: 15.27596437
mean anomaly at epoch: 97.0855°

The dashed part of the orbit path shows where the satellite is in the earth's shadow,  

DLR